Index of /20260416/WXO-DD/model_gdps/15km/00/084
Name Last modified Size Description
Parent Directory -
20260416T00Z_MSC_GDPS_AbsoluteVorticity_IsbL-0200_LatLon0.15_PT084H.grib2 2026-04-16 04:21 1.5M
20260416T00Z_MSC_GDPS_AbsoluteVorticity_IsbL-0250_LatLon0.15_PT084H.grib2 2026-04-16 04:21 1.3M
20260416T00Z_MSC_GDPS_AbsoluteVorticity_IsbL-0500_LatLon0.15_PT084H.grib2 2026-04-16 04:21 1.4M
20260416T00Z_MSC_GDPS_AbsoluteVorticity_IsbL-0700_LatLon0.15_PT084H.grib2 2026-04-16 04:21 1.3M
20260416T00Z_MSC_GDPS_AbsoluteVorticity_IsbL-0850_LatLon0.15_PT084H.grib2 2026-04-16 04:21 1.6M
20260416T00Z_MSC_GDPS_AirTemp-Max_AGL-2m_LatLon0.15_PT084H.grib2 2026-04-16 04:21 746K
20260416T00Z_MSC_GDPS_AirTemp-Min_AGL-2m_LatLon0.15_PT084H.grib2 2026-04-16 04:21 791K
20260416T00Z_MSC_GDPS_AirTemp_AGL-120m_LatLon0.15_PT084H.grib2 2026-04-16 04:21 908K
20260416T00Z_MSC_GDPS_AirTemp_AGL-2m_LatLon0.15_PT084H.grib2 2026-04-16 04:21 1.0M
20260416T00Z_MSC_GDPS_AirTemp_AGL-40m_LatLon0.15_PT084H.grib2 2026-04-16 04:21 928K
20260416T00Z_MSC_GDPS_AirTemp_AGL-80m_LatLon0.15_PT084H.grib2 2026-04-16 04:21 917K
20260416T00Z_MSC_GDPS_AirTemp_IsbL-0001_LatLon0.15_PT084H.grib2 2026-04-16 04:21 705K
20260416T00Z_MSC_GDPS_AirTemp_IsbL-0005_LatLon0.15_PT084H.grib2 2026-04-16 04:21 689K
20260416T00Z_MSC_GDPS_AirTemp_IsbL-0010_LatLon0.15_PT084H.grib2 2026-04-16 04:21 757K
20260416T00Z_MSC_GDPS_AirTemp_IsbL-0020_LatLon0.15_PT084H.grib2 2026-04-16 04:21 697K
20260416T00Z_MSC_GDPS_AirTemp_IsbL-0030_LatLon0.15_PT084H.grib2 2026-04-16 04:21 750K
20260416T00Z_MSC_GDPS_AirTemp_IsbL-0050_LatLon0.15_PT084H.grib2 2026-04-16 04:21 816K
20260416T00Z_MSC_GDPS_AirTemp_IsbL-0100_LatLon0.15_PT084H.grib2 2026-04-16 04:21 954K
20260416T00Z_MSC_GDPS_AirTemp_IsbL-0150_LatLon0.15_PT084H.grib2 2026-04-16 04:21 1.0M
20260416T00Z_MSC_GDPS_AirTemp_IsbL-0175_LatLon0.15_PT084H.grib2 2026-04-16 04:21 967K
20260416T00Z_MSC_GDPS_AirTemp_IsbL-0200_LatLon0.15_PT084H.grib2 2026-04-16 04:21 1.0M
20260416T00Z_MSC_GDPS_AirTemp_IsbL-0225_LatLon0.15_PT084H.grib2 2026-04-16 04:21 1.0M
20260416T00Z_MSC_GDPS_AirTemp_IsbL-0250_LatLon0.15_PT084H.grib2 2026-04-16 04:21 1.0M
20260416T00Z_MSC_GDPS_AirTemp_IsbL-0275_LatLon0.15_PT084H.grib2 2026-04-16 04:21 1.0M
20260416T00Z_MSC_GDPS_AirTemp_IsbL-0300_LatLon0.15_PT084H.grib2 2026-04-16 04:21 1.0M
20260416T00Z_MSC_GDPS_AirTemp_IsbL-0350_LatLon0.15_PT084H.grib2 2026-04-16 04:21 925K
20260416T00Z_MSC_GDPS_AirTemp_IsbL-0400_LatLon0.15_PT084H.grib2 2026-04-16 04:21 937K
20260416T00Z_MSC_GDPS_AirTemp_IsbL-0450_LatLon0.15_PT084H.grib2 2026-04-16 04:21 959K
20260416T00Z_MSC_GDPS_AirTemp_IsbL-0500_LatLon0.15_PT084H.grib2 2026-04-16 04:21 1.0M
20260416T00Z_MSC_GDPS_AirTemp_IsbL-0550_LatLon0.15_PT084H.grib2 2026-04-16 04:21 1.0M
20260416T00Z_MSC_GDPS_AirTemp_IsbL-0600_LatLon0.15_PT084H.grib2 2026-04-16 04:21 898K
20260416T00Z_MSC_GDPS_AirTemp_IsbL-0650_LatLon0.15_PT084H.grib2 2026-04-16 04:21 930K
20260416T00Z_MSC_GDPS_AirTemp_IsbL-0700_LatLon0.15_PT084H.grib2 2026-04-16 04:21 960K
20260416T00Z_MSC_GDPS_AirTemp_IsbL-0750_LatLon0.15_PT084H.grib2 2026-04-16 04:21 1.0M
20260416T00Z_MSC_GDPS_AirTemp_IsbL-0800_LatLon0.15_PT084H.grib2 2026-04-16 04:21 1.1M
20260416T00Z_MSC_GDPS_AirTemp_IsbL-0850_LatLon0.15_PT084H.grib2 2026-04-16 04:21 1.1M
20260416T00Z_MSC_GDPS_AirTemp_IsbL-0875_LatLon0.15_PT084H.grib2 2026-04-16 04:21 1.2M
20260416T00Z_MSC_GDPS_AirTemp_IsbL-0900_LatLon0.15_PT084H.grib2 2026-04-16 04:21 1.1M
20260416T00Z_MSC_GDPS_AirTemp_IsbL-0925_LatLon0.15_PT084H.grib2 2026-04-16 04:21 1.1M
20260416T00Z_MSC_GDPS_AirTemp_IsbL-0950_LatLon0.15_PT084H.grib2 2026-04-16 04:21 1.1M
20260416T00Z_MSC_GDPS_AirTemp_IsbL-0970_LatLon0.15_PT084H.grib2 2026-04-16 04:21 1.1M
20260416T00Z_MSC_GDPS_AirTemp_IsbL-0985_LatLon0.15_PT084H.grib2 2026-04-16 04:21 1.1M
20260416T00Z_MSC_GDPS_AirTemp_IsbL-1000_LatLon0.15_PT084H.grib2 2026-04-16 04:21 1.1M
20260416T00Z_MSC_GDPS_AirTemp_IsbL-1015_LatLon0.15_PT084H.grib2 2026-04-16 04:21 1.1M
20260416T00Z_MSC_GDPS_Albedo_Sfc_LatLon0.15_PT084H.grib2 2026-04-16 04:21 244K
20260416T00Z_MSC_GDPS_CAPE_Sfc_LatLon0.15_PT084H.grib2 2026-04-16 04:21 3.8M
20260416T00Z_MSC_GDPS_CIN_Sfc_LatLon0.15_PT084H.grib2 2026-04-16 04:21 2.9M
20260416T00Z_MSC_GDPS_CloudWater_EAtm_LatLon0.15_PT084H.grib2 2026-04-16 04:21 531K
20260416T00Z_MSC_GDPS_ConvectivePrecip-Accum_Sfc_LatLon0.15_PT084H.grib2 2026-04-16 04:21 3.2M
20260416T00Z_MSC_GDPS_DewPointDepression_AGL-2m_LatLon0.15_PT084H.grib2 2026-04-16 04:21 582K
20260416T00Z_MSC_GDPS_DewPointDepression_IsbL-0010_LatLon0.15_PT084H.grib2 2026-04-16 04:21 5.9K
20260416T00Z_MSC_GDPS_DewPointDepression_IsbL-0020_LatLon0.15_PT084H.grib2 2026-04-16 04:21 84K
20260416T00Z_MSC_GDPS_DewPointDepression_IsbL-0030_LatLon0.15_PT084H.grib2 2026-04-16 04:21 72K
20260416T00Z_MSC_GDPS_DewPointDepression_IsbL-0050_LatLon0.15_PT084H.grib2 2026-04-16 04:21 359K
20260416T00Z_MSC_GDPS_DewPointDepression_IsbL-0100_LatLon0.15_PT084H.grib2 2026-04-16 04:21 383K
20260416T00Z_MSC_GDPS_DewPointDepression_IsbL-0150_LatLon0.15_PT084H.grib2 2026-04-16 04:21 460K
20260416T00Z_MSC_GDPS_DewPointDepression_IsbL-0175_LatLon0.15_PT084H.grib2 2026-04-16 04:21 543K
20260416T00Z_MSC_GDPS_DewPointDepression_IsbL-0200_LatLon0.15_PT084H.grib2 2026-04-16 04:21 613K
20260416T00Z_MSC_GDPS_DewPointDepression_IsbL-0225_LatLon0.15_PT084H.grib2 2026-04-16 04:21 747K
20260416T00Z_MSC_GDPS_DewPointDepression_IsbL-0250_LatLon0.15_PT084H.grib2 2026-04-16 04:21 866K
20260416T00Z_MSC_GDPS_DewPointDepression_IsbL-0275_LatLon0.15_PT084H.grib2 2026-04-16 04:21 881K
20260416T00Z_MSC_GDPS_DewPointDepression_IsbL-0300_LatLon0.15_PT084H.grib2 2026-04-16 04:21 916K
20260416T00Z_MSC_GDPS_DewPointDepression_IsbL-0350_LatLon0.15_PT084H.grib2 2026-04-16 04:21 948K
20260416T00Z_MSC_GDPS_DewPointDepression_IsbL-0400_LatLon0.15_PT084H.grib2 2026-04-16 04:21 1.0M
20260416T00Z_MSC_GDPS_DewPointDepression_IsbL-0450_LatLon0.15_PT084H.grib2 2026-04-16 04:21 1.0M
20260416T00Z_MSC_GDPS_DewPointDepression_IsbL-0500_LatLon0.15_PT084H.grib2 2026-04-16 04:21 1.0M
20260416T00Z_MSC_GDPS_DewPointDepression_IsbL-0550_LatLon0.15_PT084H.grib2 2026-04-16 04:21 1.0M
20260416T00Z_MSC_GDPS_DewPointDepression_IsbL-0600_LatLon0.15_PT084H.grib2 2026-04-16 04:21 1.1M
20260416T00Z_MSC_GDPS_DewPointDepression_IsbL-0650_LatLon0.15_PT084H.grib2 2026-04-16 04:21 1.1M
20260416T00Z_MSC_GDPS_DewPointDepression_IsbL-0700_LatLon0.15_PT084H.grib2 2026-04-16 04:21 1.1M
20260416T00Z_MSC_GDPS_DewPointDepression_IsbL-0750_LatLon0.15_PT084H.grib2 2026-04-16 04:21 1.1M
20260416T00Z_MSC_GDPS_DewPointDepression_IsbL-0800_LatLon0.15_PT084H.grib2 2026-04-16 04:21 1.2M
20260416T00Z_MSC_GDPS_DewPointDepression_IsbL-0850_LatLon0.15_PT084H.grib2 2026-04-16 04:21 1.2M
20260416T00Z_MSC_GDPS_DewPointDepression_IsbL-0875_LatLon0.15_PT084H.grib2 2026-04-16 04:21 1.1M
20260416T00Z_MSC_GDPS_DewPointDepression_IsbL-0900_LatLon0.15_PT084H.grib2 2026-04-16 04:21 1.1M
20260416T00Z_MSC_GDPS_DewPointDepression_IsbL-0925_LatLon0.15_PT084H.grib2 2026-04-16 04:21 1.0M
20260416T00Z_MSC_GDPS_DewPointDepression_IsbL-0950_LatLon0.15_PT084H.grib2 2026-04-16 04:21 1.0M
20260416T00Z_MSC_GDPS_DewPointDepression_IsbL-0970_LatLon0.15_PT084H.grib2 2026-04-16 04:21 1.0M
20260416T00Z_MSC_GDPS_DewPointDepression_IsbL-0985_LatLon0.15_PT084H.grib2 2026-04-16 04:21 1.0M
20260416T00Z_MSC_GDPS_DewPointDepression_IsbL-1000_LatLon0.15_PT084H.grib2 2026-04-16 04:21 963K
20260416T00Z_MSC_GDPS_DewPointDepression_IsbL-1015_LatLon0.15_PT084H.grib2 2026-04-16 04:21 900K
20260416T00Z_MSC_GDPS_DewPoint_AGL-2m_LatLon0.15_PT084H.grib2 2026-04-16 04:21 616K
20260416T00Z_MSC_GDPS_DownwardLongwaveRadiationFlux-Accum_Sfc_LatLon0.15_PT084H.grib2 2026-04-16 04:21 693K
20260416T00Z_MSC_GDPS_DownwardShortwaveRadiationFlux-Accum_NTAtm_LatLon0.15_PT084H.grib2 2026-04-16 04:21 294K
20260416T00Z_MSC_GDPS_DownwardShortwaveRadiationFlux-Accum_Sfc_LatLon0.15_PT084H.grib2 2026-04-16 04:21 921K
20260416T00Z_MSC_GDPS_FreezingRain-Accum12h_Sfc_LatLon0.15_PT084H.grib2 2026-04-16 04:21 103K
20260416T00Z_MSC_GDPS_FreezingRain-Accum1h_Sfc_LatLon0.15_PT084H.grib2 2026-04-16 04:21 45K
20260416T00Z_MSC_GDPS_FreezingRain-Accum24h_Sfc_LatLon0.15_PT084H.grib2 2026-04-16 04:21 125K
20260416T00Z_MSC_GDPS_FreezingRain-Accum3h_Sfc_LatLon0.15_PT084H.grib2 2026-04-16 04:21 58K
20260416T00Z_MSC_GDPS_FreezingRain-Accum6h_Sfc_LatLon0.15_PT084H.grib2 2026-04-16 04:21 79K
20260416T00Z_MSC_GDPS_FreezingRain-Accum_Sfc_LatLon0.15_PT084H.grib2 2026-04-16 04:21 249K
20260416T00Z_MSC_GDPS_GeopotentialHeight_IsbL-0001_LatLon0.15_PT084H.grib2 2026-04-16 04:21 388K
20260416T00Z_MSC_GDPS_GeopotentialHeight_IsbL-0005_LatLon0.15_PT084H.grib2 2026-04-16 04:21 507K
20260416T00Z_MSC_GDPS_GeopotentialHeight_IsbL-0010_LatLon0.15_PT084H.grib2 2026-04-16 04:21 439K
20260416T00Z_MSC_GDPS_GeopotentialHeight_IsbL-0020_LatLon0.15_PT084H.grib2 2026-04-16 04:21 580K
20260416T00Z_MSC_GDPS_GeopotentialHeight_IsbL-0030_LatLon0.15_PT084H.grib2 2026-04-16 04:21 582K
20260416T00Z_MSC_GDPS_GeopotentialHeight_IsbL-0050_LatLon0.15_PT084H.grib2 2026-04-16 04:21 585K
20260416T00Z_MSC_GDPS_GeopotentialHeight_IsbL-0100_LatLon0.15_PT084H.grib2 2026-04-16 04:21 619K
20260416T00Z_MSC_GDPS_GeopotentialHeight_IsbL-0150_LatLon0.15_PT084H.grib2 2026-04-16 04:21 637K
20260416T00Z_MSC_GDPS_GeopotentialHeight_IsbL-0175_LatLon0.15_PT084H.grib2 2026-04-16 04:21 641K
20260416T00Z_MSC_GDPS_GeopotentialHeight_IsbL-0200_LatLon0.15_PT084H.grib2 2026-04-16 04:21 644K
20260416T00Z_MSC_GDPS_GeopotentialHeight_IsbL-0225_LatLon0.15_PT084H.grib2 2026-04-16 04:21 638K
20260416T00Z_MSC_GDPS_GeopotentialHeight_IsbL-0250_LatLon0.15_PT084H.grib2 2026-04-16 04:21 643K
20260416T00Z_MSC_GDPS_GeopotentialHeight_IsbL-0275_LatLon0.15_PT084H.grib2 2026-04-16 04:21 644K
20260416T00Z_MSC_GDPS_GeopotentialHeight_IsbL-0300_LatLon0.15_PT084H.grib2 2026-04-16 04:21 643K
20260416T00Z_MSC_GDPS_GeopotentialHeight_IsbL-0350_LatLon0.15_PT084H.grib2 2026-04-16 04:21 631K
20260416T00Z_MSC_GDPS_GeopotentialHeight_IsbL-0400_LatLon0.15_PT084H.grib2 2026-04-16 04:21 624K
20260416T00Z_MSC_GDPS_GeopotentialHeight_IsbL-0450_LatLon0.15_PT084H.grib2 2026-04-16 04:21 544K
20260416T00Z_MSC_GDPS_GeopotentialHeight_IsbL-0500_LatLon0.15_PT084H.grib2 2026-04-16 04:21 532K
20260416T00Z_MSC_GDPS_GeopotentialHeight_IsbL-0550_LatLon0.15_PT084H.grib2 2026-04-16 04:21 697K
20260416T00Z_MSC_GDPS_GeopotentialHeight_IsbL-0600_LatLon0.15_PT084H.grib2 2026-04-16 04:21 691K
20260416T00Z_MSC_GDPS_GeopotentialHeight_IsbL-0650_LatLon0.15_PT084H.grib2 2026-04-16 04:21 689K
20260416T00Z_MSC_GDPS_GeopotentialHeight_IsbL-0700_LatLon0.15_PT084H.grib2 2026-04-16 04:21 690K
20260416T00Z_MSC_GDPS_GeopotentialHeight_IsbL-0750_LatLon0.15_PT084H.grib2 2026-04-16 04:21 626K
20260416T00Z_MSC_GDPS_GeopotentialHeight_IsbL-0800_LatLon0.15_PT084H.grib2 2026-04-16 04:21 635K
20260416T00Z_MSC_GDPS_GeopotentialHeight_IsbL-0850_LatLon0.15_PT084H.grib2 2026-04-16 04:21 645K
20260416T00Z_MSC_GDPS_GeopotentialHeight_IsbL-0875_LatLon0.15_PT084H.grib2 2026-04-16 04:21 648K
20260416T00Z_MSC_GDPS_GeopotentialHeight_IsbL-0900_LatLon0.15_PT084H.grib2 2026-04-16 04:21 656K
20260416T00Z_MSC_GDPS_GeopotentialHeight_IsbL-0925_LatLon0.15_PT084H.grib2 2026-04-16 04:21 664K
20260416T00Z_MSC_GDPS_GeopotentialHeight_IsbL-0950_LatLon0.15_PT084H.grib2 2026-04-16 04:21 732K
20260416T00Z_MSC_GDPS_GeopotentialHeight_IsbL-0970_LatLon0.15_PT084H.grib2 2026-04-16 04:21 747K
20260416T00Z_MSC_GDPS_GeopotentialHeight_IsbL-0985_LatLon0.15_PT084H.grib2 2026-04-16 04:21 763K
20260416T00Z_MSC_GDPS_GeopotentialHeight_IsbL-1000_LatLon0.15_PT084H.grib2 2026-04-16 04:21 782K
20260416T00Z_MSC_GDPS_GeopotentialHeight_IsbL-1015_LatLon0.15_PT084H.grib2 2026-04-16 04:21 809K
20260416T00Z_MSC_GDPS_Humidex_Sfc_LatLon0.15_PT084H.grib2 2026-04-16 04:21 5.3M
20260416T00Z_MSC_GDPS_IcePellets-Accum12h_Sfc_LatLon0.15_PT084H.grib2 2026-04-16 04:21 57K
20260416T00Z_MSC_GDPS_IcePellets-Accum1h_Sfc_LatLon0.15_PT084H.grib2 2026-04-16 04:21 17K
20260416T00Z_MSC_GDPS_IcePellets-Accum24h_Sfc_LatLon0.15_PT084H.grib2 2026-04-16 04:21 87K
20260416T00Z_MSC_GDPS_IcePellets-Accum3h_Sfc_LatLon0.15_PT084H.grib2 2026-04-16 04:21 23K
20260416T00Z_MSC_GDPS_IcePellets-Accum6h_Sfc_LatLon0.15_PT084H.grib2 2026-04-16 04:21 39K
20260416T00Z_MSC_GDPS_IcePellets-Accum_Sfc_LatLon0.15_PT084H.grib2 2026-04-16 04:21 133K
20260416T00Z_MSC_GDPS_KIndex_Sfc_LatLon0.15_PT084H.grib2 2026-04-16 04:21 6.5M
20260416T00Z_MSC_GDPS_LatentHeatNetFlux_Sfc_LatLon0.15_PT084H.grib2 2026-04-16 04:21 547K
20260416T00Z_MSC_GDPS_LiftedIndex-MU-VT_IsbL-0500_LatLon0.15_PT084H.grib2 2026-04-16 04:21 5.4M
20260416T00Z_MSC_GDPS_NetLongwaveRadiationFlux-Accum_Sfc_LatLon0.15_PT084H.grib2 2026-04-16 04:21 1.0M
20260416T00Z_MSC_GDPS_NetShortwaveRadiationFlux-Accum_Sfc_LatLon0.15_PT084H.grib2 2026-04-16 04:21 913K
20260416T00Z_MSC_GDPS_O3MixingRatio_LatLon0.15_PT084H.grib2 2026-04-16 04:53 2.3M
20260416T00Z_MSC_GDPS_O3_EAtm_LatLon0.15_PT084H.grib2 2026-04-16 04:53 2.1M
20260416T00Z_MSC_GDPS_PlanetaryBoundaryLayerHeight_Sfc_LatLon0.15_PT084H.grib2 2026-04-16 04:21 2.4M
20260416T00Z_MSC_GDPS_Precip-Accum12h_Sfc_LatLon0.15_PT084H.grib2 2026-04-16 04:21 4.0M
20260416T00Z_MSC_GDPS_Precip-Accum1h_Sfc_LatLon0.15_PT084H.grib2 2026-04-16 04:21 3.2M
20260416T00Z_MSC_GDPS_Precip-Accum24h_Sfc_LatLon0.15_PT084H.grib2 2026-04-16 04:21 4.5M
20260416T00Z_MSC_GDPS_Precip-Accum3h_Sfc_LatLon0.15_PT084H.grib2 2026-04-16 04:21 3.5M
20260416T00Z_MSC_GDPS_Precip-Accum6h_Sfc_LatLon0.15_PT084H.grib2 2026-04-16 04:21 3.5M
20260416T00Z_MSC_GDPS_Precip-Accum_Sfc_LatLon0.15_PT084H.grib2 2026-04-16 04:21 4.9M
20260416T00Z_MSC_GDPS_PrecipRate_Sfc_LatLon0.15_PT084H.grib2 2026-04-16 04:21 3.0M
20260416T00Z_MSC_GDPS_PrecipType-Instant_Sfc_LatLon0.15_PT084H.grib2 2026-04-16 04:21 1.6M
20260416T00Z_MSC_GDPS_Pressure_MSL_LatLon0.15_PT084H.grib2 2026-04-16 04:21 719K
20260416T00Z_MSC_GDPS_Pressure_PVU-1.5_LatLon0.15_PT084H.grib2 2026-04-16 04:21 5.8M
20260416T00Z_MSC_GDPS_Pressure_PVU-1_LatLon0.15_PT084H.grib2 2026-04-16 04:21 6.0M
20260416T00Z_MSC_GDPS_Pressure_PVU-2_LatLon0.15_PT084H.grib2 2026-04-16 04:21 5.6M
20260416T00Z_MSC_GDPS_Pressure_Sfc_LatLon0.15_PT084H.grib2 2026-04-16 04:21 1.1M
20260416T00Z_MSC_GDPS_RadiativeTemp_Sfc_LatLon0.15_PT084H.grib2 2026-04-16 04:21 683K
20260416T00Z_MSC_GDPS_Rain-Accum12h_Sfc_LatLon0.15_PT084H.grib2 2026-04-16 04:21 2.6M
20260416T00Z_MSC_GDPS_Rain-Accum1h_Sfc_LatLon0.15_PT084H.grib2 2026-04-16 04:21 1.6M
20260416T00Z_MSC_GDPS_Rain-Accum24h_Sfc_LatLon0.15_PT084H.grib2 2026-04-16 04:21 3.1M
20260416T00Z_MSC_GDPS_Rain-Accum3h_Sfc_LatLon0.15_PT084H.grib2 2026-04-16 04:21 1.7M
20260416T00Z_MSC_GDPS_Rain-Accum6h_Sfc_LatLon0.15_PT084H.grib2 2026-04-16 04:21 2.2M
20260416T00Z_MSC_GDPS_Rain-Accum_Sfc_LatLon0.15_PT084H.grib2 2026-04-16 04:21 3.7M
20260416T00Z_MSC_GDPS_RelativeHumidity_AGL-2m_LatLon0.15_PT084H.grib2 2026-04-16 04:21 1.0M
20260416T00Z_MSC_GDPS_RelativeHumidity_IsbL-0010_LatLon0.15_PT084H.grib2 2026-04-16 04:21 257K
20260416T00Z_MSC_GDPS_RelativeHumidity_IsbL-0020_LatLon0.15_PT084H.grib2 2026-04-16 04:21 375K
20260416T00Z_MSC_GDPS_RelativeHumidity_IsbL-0030_LatLon0.15_PT084H.grib2 2026-04-16 04:21 379K
20260416T00Z_MSC_GDPS_RelativeHumidity_IsbL-0050_LatLon0.15_PT084H.grib2 2026-04-16 04:21 324K
20260416T00Z_MSC_GDPS_RelativeHumidity_IsbL-0100_LatLon0.15_PT084H.grib2 2026-04-16 04:21 337K
20260416T00Z_MSC_GDPS_RelativeHumidity_IsbL-0150_LatLon0.15_PT084H.grib2 2026-04-16 04:21 659K
20260416T00Z_MSC_GDPS_RelativeHumidity_IsbL-0175_LatLon0.15_PT084H.grib2 2026-04-16 04:21 789K
20260416T00Z_MSC_GDPS_RelativeHumidity_IsbL-0200_LatLon0.15_PT084H.grib2 2026-04-16 04:21 694K
20260416T00Z_MSC_GDPS_RelativeHumidity_IsbL-0225_LatLon0.15_PT084H.grib2 2026-04-16 04:21 775K
20260416T00Z_MSC_GDPS_RelativeHumidity_IsbL-0250_LatLon0.15_PT084H.grib2 2026-04-16 04:21 870K
20260416T00Z_MSC_GDPS_RelativeHumidity_IsbL-0275_LatLon0.15_PT084H.grib2 2026-04-16 04:21 893K
20260416T00Z_MSC_GDPS_RelativeHumidity_IsbL-0300_LatLon0.15_PT084H.grib2 2026-04-16 04:21 936K
20260416T00Z_MSC_GDPS_RelativeHumidity_IsbL-0350_LatLon0.15_PT084H.grib2 2026-04-16 04:21 956K
20260416T00Z_MSC_GDPS_RelativeHumidity_IsbL-0400_LatLon0.15_PT084H.grib2 2026-04-16 04:21 1.0M
20260416T00Z_MSC_GDPS_RelativeHumidity_IsbL-0450_LatLon0.15_PT084H.grib2 2026-04-16 04:21 1.0M
20260416T00Z_MSC_GDPS_RelativeHumidity_IsbL-0500_LatLon0.15_PT084H.grib2 2026-04-16 04:21 1.0M
20260416T00Z_MSC_GDPS_RelativeHumidity_IsbL-0550_LatLon0.15_PT084H.grib2 2026-04-16 04:21 1.0M
20260416T00Z_MSC_GDPS_RelativeHumidity_IsbL-0600_LatLon0.15_PT084H.grib2 2026-04-16 04:21 1.1M
20260416T00Z_MSC_GDPS_RelativeHumidity_IsbL-0650_LatLon0.15_PT084H.grib2 2026-04-16 04:21 1.1M
20260416T00Z_MSC_GDPS_RelativeHumidity_IsbL-0700_LatLon0.15_PT084H.grib2 2026-04-16 04:21 1.1M
20260416T00Z_MSC_GDPS_RelativeHumidity_IsbL-0750_LatLon0.15_PT084H.grib2 2026-04-16 04:21 1.2M
20260416T00Z_MSC_GDPS_RelativeHumidity_IsbL-0800_LatLon0.15_PT084H.grib2 2026-04-16 04:21 1.3M
20260416T00Z_MSC_GDPS_RelativeHumidity_IsbL-0850_LatLon0.15_PT084H.grib2 2026-04-16 04:21 1.3M
20260416T00Z_MSC_GDPS_RelativeHumidity_IsbL-0875_LatLon0.15_PT084H.grib2 2026-04-16 04:21 1.3M
20260416T00Z_MSC_GDPS_RelativeHumidity_IsbL-0900_LatLon0.15_PT084H.grib2 2026-04-16 04:21 1.3M
20260416T00Z_MSC_GDPS_RelativeHumidity_IsbL-0925_LatLon0.15_PT084H.grib2 2026-04-16 04:21 1.2M
20260416T00Z_MSC_GDPS_RelativeHumidity_IsbL-0950_LatLon0.15_PT084H.grib2 2026-04-16 04:21 1.2M
20260416T00Z_MSC_GDPS_RelativeHumidity_IsbL-0970_LatLon0.15_PT084H.grib2 2026-04-16 04:21 1.2M
20260416T00Z_MSC_GDPS_RelativeHumidity_IsbL-0985_LatLon0.15_PT084H.grib2 2026-04-16 04:21 1.1M
20260416T00Z_MSC_GDPS_RelativeHumidity_IsbL-1000_LatLon0.15_PT084H.grib2 2026-04-16 04:21 1.1M
20260416T00Z_MSC_GDPS_RelativeHumidity_IsbL-1015_LatLon0.15_PT084H.grib2 2026-04-16 04:21 1.0M
20260416T00Z_MSC_GDPS_RelativeVorticity_IsbL-0200_LatLon0.15_PT084H.grib2 2026-04-16 04:21 1.5M
20260416T00Z_MSC_GDPS_RelativeVorticity_IsbL-0250_LatLon0.15_PT084H.grib2 2026-04-16 04:21 1.6M
20260416T00Z_MSC_GDPS_RelativeVorticity_IsbL-0500_LatLon0.15_PT084H.grib2 2026-04-16 04:21 1.4M
20260416T00Z_MSC_GDPS_RelativeVorticity_IsbL-0700_LatLon0.15_PT084H.grib2 2026-04-16 04:21 1.3M
20260416T00Z_MSC_GDPS_RelativeVorticity_IsbL-0850_LatLon0.15_PT084H.grib2 2026-04-16 04:21 1.6M
20260416T00Z_MSC_GDPS_Runoff-Accum_Sfc_LatLon0.15_PT084H.grib2 2026-04-16 04:21 134K
20260416T00Z_MSC_GDPS_SensibleHeatNetFlux_Sfc_LatLon0.15_PT084H.grib2 2026-04-16 04:21 477K
20260416T00Z_MSC_GDPS_ShowalterIndex_IsbL-0500_LatLon0.15_PT084H.grib2 2026-04-16 04:21 6.2M
20260416T00Z_MSC_GDPS_Snow-Accum12h_Sfc_LatLon0.15_PT084H.grib2 2026-04-16 04:21 1.6M
20260416T00Z_MSC_GDPS_Snow-Accum1h_Sfc_LatLon0.15_PT084H.grib2 2026-04-16 04:21 1.3M
20260416T00Z_MSC_GDPS_Snow-Accum24h_Sfc_LatLon0.15_PT084H.grib2 2026-04-16 04:21 1.7M
20260416T00Z_MSC_GDPS_Snow-Accum3h_Sfc_LatLon0.15_PT084H.grib2 2026-04-16 04:21 1.1M
20260416T00Z_MSC_GDPS_Snow-Accum6h_Sfc_LatLon0.15_PT084H.grib2 2026-04-16 04:21 1.4M
20260416T00Z_MSC_GDPS_Snow-Accum_Sfc_LatLon0.15_PT084H.grib2 2026-04-16 04:21 2.0M
20260416T00Z_MSC_GDPS_SnowDensity_Sfc_LatLon0.15_PT084H.grib2 2026-04-16 04:21 269K
20260416T00Z_MSC_GDPS_SnowDepth_Sfc_LatLon0.15_PT084H.grib2 2026-04-16 04:21 1.8M
20260416T00Z_MSC_GDPS_SoilTemp_DBS-0to10cm_LatLon0.15_PT084H.grib2 2026-04-16 04:21 506K
20260416T00Z_MSC_GDPS_SoilTemp_Sfc_LatLon0.15_PT084H.grib2 2026-04-16 04:21 592K
20260416T00Z_MSC_GDPS_SoilVolumetricIceContent_Sfc_LatLon0.15_PT084H.grib2 2026-04-16 04:21 223K
20260416T00Z_MSC_GDPS_SoilVolumetricWaterContent_DBS-0to10cm_LatLon0.15_PT084H.grib2 2026-04-16 04:21 554K
20260416T00Z_MSC_GDPS_SoilVolumetricWaterContent_DBS-0to1cm_LatLon0.15_PT084H.grib2 2026-04-16 04:21 648K
20260416T00Z_MSC_GDPS_SpecificHumidity_AGL-120m_LatLon0.15_PT084H.grib2 2026-04-16 04:21 1.1M
20260416T00Z_MSC_GDPS_SpecificHumidity_AGL-2m_LatLon0.15_PT084H.grib2 2026-04-16 04:21 1.2M
20260416T00Z_MSC_GDPS_SpecificHumidity_AGL-40m_LatLon0.15_PT084H.grib2 2026-04-16 04:21 1.1M
20260416T00Z_MSC_GDPS_SpecificHumidity_AGL-80m_LatLon0.15_PT084H.grib2 2026-04-16 04:21 1.1M
20260416T00Z_MSC_GDPS_SpecificHumidity_IsbL-0001_LatLon0.15_PT084H.grib2 2026-04-16 04:21 1.2M
20260416T00Z_MSC_GDPS_SpecificHumidity_IsbL-0005_LatLon0.15_PT084H.grib2 2026-04-16 04:21 1.1M
20260416T00Z_MSC_GDPS_SpecificHumidity_IsbL-0010_LatLon0.15_PT084H.grib2 2026-04-16 04:21 1.3M
20260416T00Z_MSC_GDPS_SpecificHumidity_IsbL-0020_LatLon0.15_PT084H.grib2 2026-04-16 04:21 1.3M
20260416T00Z_MSC_GDPS_SpecificHumidity_IsbL-0030_LatLon0.15_PT084H.grib2 2026-04-16 04:21 1.6M
20260416T00Z_MSC_GDPS_SpecificHumidity_IsbL-0050_LatLon0.15_PT084H.grib2 2026-04-16 04:21 1.3M
20260416T00Z_MSC_GDPS_SpecificHumidity_IsbL-0100_LatLon0.15_PT084H.grib2 2026-04-16 04:21 1.3M
20260416T00Z_MSC_GDPS_SpecificHumidity_IsbL-0150_LatLon0.15_PT084H.grib2 2026-04-16 04:21 1.3M
20260416T00Z_MSC_GDPS_SpecificHumidity_IsbL-0175_LatLon0.15_PT084H.grib2 2026-04-16 04:21 1.3M
20260416T00Z_MSC_GDPS_SpecificHumidity_IsbL-0200_LatLon0.15_PT084H.grib2 2026-04-16 04:21 1.3M
20260416T00Z_MSC_GDPS_SpecificHumidity_IsbL-0225_LatLon0.15_PT084H.grib2 2026-04-16 04:21 1.3M
20260416T00Z_MSC_GDPS_SpecificHumidity_IsbL-0250_LatLon0.15_PT084H.grib2 2026-04-16 04:21 1.2M
20260416T00Z_MSC_GDPS_SpecificHumidity_IsbL-0275_LatLon0.15_PT084H.grib2 2026-04-16 04:21 1.3M
20260416T00Z_MSC_GDPS_SpecificHumidity_IsbL-0300_LatLon0.15_PT084H.grib2 2026-04-16 04:21 1.2M
20260416T00Z_MSC_GDPS_SpecificHumidity_IsbL-0350_LatLon0.15_PT084H.grib2 2026-04-16 04:21 1.2M
20260416T00Z_MSC_GDPS_SpecificHumidity_IsbL-0400_LatLon0.15_PT084H.grib2 2026-04-16 04:21 1.5M
20260416T00Z_MSC_GDPS_SpecificHumidity_IsbL-0450_LatLon0.15_PT084H.grib2 2026-04-16 04:21 1.6M
20260416T00Z_MSC_GDPS_SpecificHumidity_IsbL-0500_LatLon0.15_PT084H.grib2 2026-04-16 04:21 1.4M
20260416T00Z_MSC_GDPS_SpecificHumidity_IsbL-0550_LatLon0.15_PT084H.grib2 2026-04-16 04:21 1.6M
20260416T00Z_MSC_GDPS_SpecificHumidity_IsbL-0600_LatLon0.15_PT084H.grib2 2026-04-16 04:21 1.7M
20260416T00Z_MSC_GDPS_SpecificHumidity_IsbL-0650_LatLon0.15_PT084H.grib2 2026-04-16 04:21 1.5M
20260416T00Z_MSC_GDPS_SpecificHumidity_IsbL-0700_LatLon0.15_PT084H.grib2 2026-04-16 04:21 1.6M
20260416T00Z_MSC_GDPS_SpecificHumidity_IsbL-0750_LatLon0.15_PT084H.grib2 2026-04-16 04:21 1.7M
20260416T00Z_MSC_GDPS_SpecificHumidity_IsbL-0800_LatLon0.15_PT084H.grib2 2026-04-16 04:21 1.8M
20260416T00Z_MSC_GDPS_SpecificHumidity_IsbL-0850_LatLon0.15_PT084H.grib2 2026-04-16 04:21 1.9M
20260416T00Z_MSC_GDPS_SpecificHumidity_IsbL-0875_LatLon0.15_PT084H.grib2 2026-04-16 04:21 1.9M
20260416T00Z_MSC_GDPS_SpecificHumidity_IsbL-0900_LatLon0.15_PT084H.grib2 2026-04-16 04:21 1.6M
20260416T00Z_MSC_GDPS_SpecificHumidity_IsbL-0925_LatLon0.15_PT084H.grib2 2026-04-16 04:21 1.6M
20260416T00Z_MSC_GDPS_SpecificHumidity_IsbL-0950_LatLon0.15_PT084H.grib2 2026-04-16 04:21 1.5M
20260416T00Z_MSC_GDPS_SpecificHumidity_IsbL-0970_LatLon0.15_PT084H.grib2 2026-04-16 04:21 1.5M
20260416T00Z_MSC_GDPS_SpecificHumidity_IsbL-0985_LatLon0.15_PT084H.grib2 2026-04-16 04:21 1.5M
20260416T00Z_MSC_GDPS_SpecificHumidity_IsbL-1000_LatLon0.15_PT084H.grib2 2026-04-16 04:21 1.5M
20260416T00Z_MSC_GDPS_SpecificHumidity_IsbL-1015_LatLon0.15_PT084H.grib2 2026-04-16 04:21 1.4M
20260416T00Z_MSC_GDPS_SpecificHumidity_Sfc_LatLon0.15_PT084H.grib2 2026-04-16 04:21 673K
20260416T00Z_MSC_GDPS_Thickness_IsbL-0850to0700_LatLon0.15_PT084H.grib2 2026-04-16 04:21 471K
20260416T00Z_MSC_GDPS_Thickness_IsbL-1000to0500_LatLon0.15_PT084H.grib2 2026-04-16 04:21 377K
20260416T00Z_MSC_GDPS_Thickness_IsbL-1000to0850_LatLon0.15_PT084H.grib2 2026-04-16 04:21 493K
20260416T00Z_MSC_GDPS_TotalCloudCover_Sfc_LatLon0.15_PT084H.grib2 2026-04-16 04:21 816K
20260416T00Z_MSC_GDPS_TotalTotalsIndex_Sfc_LatLon0.15_PT084H.grib2 2026-04-16 04:21 6.2M
20260416T00Z_MSC_GDPS_UVIndex-ClearSky_Sfc_LatLon0.15_PT084H.grib2 2026-04-16 04:53 1.0M
20260416T00Z_MSC_GDPS_UVIndex_Sfc_LatLon0.15_PT084H.grib2 2026-04-16 04:53 1.4M
20260416T00Z_MSC_GDPS_UpwardLongwaveRadiationFlux_NTAtm_LatLon0.15_PT084H.grib2 2026-04-16 04:21 837K
20260416T00Z_MSC_GDPS_VerticalVelocity_IsbL-0200_LatLon0.15_PT084H.grib2 2026-04-16 04:21 936K
20260416T00Z_MSC_GDPS_VerticalVelocity_IsbL-0250_LatLon0.15_PT084H.grib2 2026-04-16 04:21 1.1M
20260416T00Z_MSC_GDPS_VerticalVelocity_IsbL-0500_LatLon0.15_PT084H.grib2 2026-04-16 04:21 1.3M
20260416T00Z_MSC_GDPS_VerticalVelocity_IsbL-0600_LatLon0.15_PT084H.grib2 2026-04-16 04:21 1.3M
20260416T00Z_MSC_GDPS_VerticalVelocity_IsbL-0700_LatLon0.15_PT084H.grib2 2026-04-16 04:21 1.4M
20260416T00Z_MSC_GDPS_VerticalVelocity_IsbL-0850_LatLon0.15_PT084H.grib2 2026-04-16 04:21 1.6M
20260416T00Z_MSC_GDPS_WindChill_Sfc_LatLon0.15_PT084H.grib2 2026-04-16 04:21 5.3M
20260416T00Z_MSC_GDPS_WindDir_AGL-10m_LatLon0.15_PT084H.grib2 2026-04-16 04:21 1.3M
20260416T00Z_MSC_GDPS_WindDir_AGL-120m_LatLon0.15_PT084H.grib2 2026-04-16 04:21 1.4M
20260416T00Z_MSC_GDPS_WindDir_AGL-40m_LatLon0.15_PT084H.grib2 2026-04-16 04:21 1.4M
20260416T00Z_MSC_GDPS_WindDir_AGL-80m_LatLon0.15_PT084H.grib2 2026-04-16 04:21 1.4M
20260416T00Z_MSC_GDPS_WindDir_IsbL-0001_LatLon0.15_PT084H.grib2 2026-04-16 04:21 630K
20260416T00Z_MSC_GDPS_WindDir_IsbL-0005_LatLon0.15_PT084H.grib2 2026-04-16 04:21 803K
20260416T00Z_MSC_GDPS_WindDir_IsbL-0010_LatLon0.15_PT084H.grib2 2026-04-16 04:21 847K
20260416T00Z_MSC_GDPS_WindDir_IsbL-0020_LatLon0.15_PT084H.grib2 2026-04-16 04:21 924K
20260416T00Z_MSC_GDPS_WindDir_IsbL-0030_LatLon0.15_PT084H.grib2 2026-04-16 04:21 906K
20260416T00Z_MSC_GDPS_WindDir_IsbL-0050_LatLon0.15_PT084H.grib2 2026-04-16 04:21 951K
20260416T00Z_MSC_GDPS_WindDir_IsbL-0100_LatLon0.15_PT084H.grib2 2026-04-16 04:21 1.0M
20260416T00Z_MSC_GDPS_WindDir_IsbL-0150_LatLon0.15_PT084H.grib2 2026-04-16 04:21 1.0M
20260416T00Z_MSC_GDPS_WindDir_IsbL-0175_LatLon0.15_PT084H.grib2 2026-04-16 04:21 1.0M
20260416T00Z_MSC_GDPS_WindDir_IsbL-0200_LatLon0.15_PT084H.grib2 2026-04-16 04:21 1.1M
20260416T00Z_MSC_GDPS_WindDir_IsbL-0225_LatLon0.15_PT084H.grib2 2026-04-16 04:21 1.1M
20260416T00Z_MSC_GDPS_WindDir_IsbL-0250_LatLon0.15_PT084H.grib2 2026-04-16 04:21 1.1M
20260416T00Z_MSC_GDPS_WindDir_IsbL-0275_LatLon0.15_PT084H.grib2 2026-04-16 04:21 1.2M
20260416T00Z_MSC_GDPS_WindDir_IsbL-0300_LatLon0.15_PT084H.grib2 2026-04-16 04:21 1.2M
20260416T00Z_MSC_GDPS_WindDir_IsbL-0350_LatLon0.15_PT084H.grib2 2026-04-16 04:21 1.2M
20260416T00Z_MSC_GDPS_WindDir_IsbL-0400_LatLon0.15_PT084H.grib2 2026-04-16 04:21 1.3M
20260416T00Z_MSC_GDPS_WindDir_IsbL-0450_LatLon0.15_PT084H.grib2 2026-04-16 04:21 1.3M
20260416T00Z_MSC_GDPS_WindDir_IsbL-0500_LatLon0.15_PT084H.grib2 2026-04-16 04:21 1.3M
20260416T00Z_MSC_GDPS_WindDir_IsbL-0550_LatLon0.15_PT084H.grib2 2026-04-16 04:21 1.4M
20260416T00Z_MSC_GDPS_WindDir_IsbL-0600_LatLon0.15_PT084H.grib2 2026-04-16 04:21 1.4M
20260416T00Z_MSC_GDPS_WindDir_IsbL-0650_LatLon0.15_PT084H.grib2 2026-04-16 04:21 1.5M
20260416T00Z_MSC_GDPS_WindDir_IsbL-0700_LatLon0.15_PT084H.grib2 2026-04-16 04:21 1.6M
20260416T00Z_MSC_GDPS_WindDir_IsbL-0750_LatLon0.15_PT084H.grib2 2026-04-16 04:21 1.7M
20260416T00Z_MSC_GDPS_WindDir_IsbL-0800_LatLon0.15_PT084H.grib2 2026-04-16 04:21 1.8M
20260416T00Z_MSC_GDPS_WindDir_IsbL-0850_LatLon0.15_PT084H.grib2 2026-04-16 04:21 1.9M
20260416T00Z_MSC_GDPS_WindDir_IsbL-0875_LatLon0.15_PT084H.grib2 2026-04-16 04:21 2.0M
20260416T00Z_MSC_GDPS_WindDir_IsbL-0900_LatLon0.15_PT084H.grib2 2026-04-16 04:21 2.0M
20260416T00Z_MSC_GDPS_WindDir_IsbL-0925_LatLon0.15_PT084H.grib2 2026-04-16 04:21 2.0M
20260416T00Z_MSC_GDPS_WindDir_IsbL-0950_LatLon0.15_PT084H.grib2 2026-04-16 04:21 2.0M
20260416T00Z_MSC_GDPS_WindDir_IsbL-0970_LatLon0.15_PT084H.grib2 2026-04-16 04:21 2.0M
20260416T00Z_MSC_GDPS_WindDir_IsbL-0985_LatLon0.15_PT084H.grib2 2026-04-16 04:21 2.0M
20260416T00Z_MSC_GDPS_WindDir_IsbL-1000_LatLon0.15_PT084H.grib2 2026-04-16 04:21 2.1M
20260416T00Z_MSC_GDPS_WindDir_IsbL-1015_LatLon0.15_PT084H.grib2 2026-04-16 04:21 2.0M
20260416T00Z_MSC_GDPS_WindGust-Max_AGL-10m_LatLon0.15_PT084H.grib2 2026-04-16 04:21 2.3M
20260416T00Z_MSC_GDPS_WindGust-Min_AGL-10m_LatLon0.15_PT084H.grib2 2026-04-16 04:21 2.2M
20260416T00Z_MSC_GDPS_WindGust_AGL-10m_LatLon0.15_PT084H.grib2 2026-04-16 04:21 2.2M
20260416T00Z_MSC_GDPS_WindSpeed_AGL-10m_LatLon0.15_PT084H.grib2 2026-04-16 04:21 1.1M
20260416T00Z_MSC_GDPS_WindSpeed_AGL-120m_LatLon0.15_PT084H.grib2 2026-04-16 04:21 1.2M
20260416T00Z_MSC_GDPS_WindSpeed_AGL-40m_LatLon0.15_PT084H.grib2 2026-04-16 04:21 1.2M
20260416T00Z_MSC_GDPS_WindSpeed_AGL-80m_LatLon0.15_PT084H.grib2 2026-04-16 04:21 1.2M
20260416T00Z_MSC_GDPS_WindSpeed_IsbL-0001_LatLon0.15_PT084H.grib2 2026-04-16 04:21 636K
20260416T00Z_MSC_GDPS_WindSpeed_IsbL-0005_LatLon0.15_PT084H.grib2 2026-04-16 04:21 692K
20260416T00Z_MSC_GDPS_WindSpeed_IsbL-0010_LatLon0.15_PT084H.grib2 2026-04-16 04:21 625K
20260416T00Z_MSC_GDPS_WindSpeed_IsbL-0020_LatLon0.15_PT084H.grib2 2026-04-16 04:21 666K
20260416T00Z_MSC_GDPS_WindSpeed_IsbL-0030_LatLon0.15_PT084H.grib2 2026-04-16 04:21 857K
20260416T00Z_MSC_GDPS_WindSpeed_IsbL-0050_LatLon0.15_PT084H.grib2 2026-04-16 04:21 914K
20260416T00Z_MSC_GDPS_WindSpeed_IsbL-0100_LatLon0.15_PT084H.grib2 2026-04-16 04:21 1.1M
20260416T00Z_MSC_GDPS_WindSpeed_IsbL-0150_LatLon0.15_PT084H.grib2 2026-04-16 04:21 1.0M
20260416T00Z_MSC_GDPS_WindSpeed_IsbL-0175_LatLon0.15_PT084H.grib2 2026-04-16 04:21 1.0M
20260416T00Z_MSC_GDPS_WindSpeed_IsbL-0200_LatLon0.15_PT084H.grib2 2026-04-16 04:21 1.1M
20260416T00Z_MSC_GDPS_WindSpeed_IsbL-0225_LatLon0.15_PT084H.grib2 2026-04-16 04:21 1.1M
20260416T00Z_MSC_GDPS_WindSpeed_IsbL-0250_LatLon0.15_PT084H.grib2 2026-04-16 04:21 1.1M
20260416T00Z_MSC_GDPS_WindSpeed_IsbL-0275_LatLon0.15_PT084H.grib2 2026-04-16 04:21 1.1M
20260416T00Z_MSC_GDPS_WindSpeed_IsbL-0300_LatLon0.15_PT084H.grib2 2026-04-16 04:21 1.1M
20260416T00Z_MSC_GDPS_WindSpeed_IsbL-0350_LatLon0.15_PT084H.grib2 2026-04-16 04:21 1.1M
20260416T00Z_MSC_GDPS_WindSpeed_IsbL-0400_LatLon0.15_PT084H.grib2 2026-04-16 04:21 1.1M
20260416T00Z_MSC_GDPS_WindSpeed_IsbL-0450_LatLon0.15_PT084H.grib2 2026-04-16 04:21 1.1M
20260416T00Z_MSC_GDPS_WindSpeed_IsbL-0500_LatLon0.15_PT084H.grib2 2026-04-16 04:21 1.1M
20260416T00Z_MSC_GDPS_WindSpeed_IsbL-0550_LatLon0.15_PT084H.grib2 2026-04-16 04:21 1.1M
20260416T00Z_MSC_GDPS_WindSpeed_IsbL-0600_LatLon0.15_PT084H.grib2 2026-04-16 04:21 1.1M
20260416T00Z_MSC_GDPS_WindSpeed_IsbL-0650_LatLon0.15_PT084H.grib2 2026-04-16 04:21 1.4M
20260416T00Z_MSC_GDPS_WindSpeed_IsbL-0700_LatLon0.15_PT084H.grib2 2026-04-16 04:21 1.5M
20260416T00Z_MSC_GDPS_WindSpeed_IsbL-0750_LatLon0.15_PT084H.grib2 2026-04-16 04:21 1.5M
20260416T00Z_MSC_GDPS_WindSpeed_IsbL-0800_LatLon0.15_PT084H.grib2 2026-04-16 04:21 1.6M
20260416T00Z_MSC_GDPS_WindSpeed_IsbL-0850_LatLon0.15_PT084H.grib2 2026-04-16 04:21 1.8M
20260416T00Z_MSC_GDPS_WindSpeed_IsbL-0875_LatLon0.15_PT084H.grib2 2026-04-16 04:21 1.9M
20260416T00Z_MSC_GDPS_WindSpeed_IsbL-0900_LatLon0.15_PT084H.grib2 2026-04-16 04:21 1.9M
20260416T00Z_MSC_GDPS_WindSpeed_IsbL-0925_LatLon0.15_PT084H.grib2 2026-04-16 04:21 1.9M
20260416T00Z_MSC_GDPS_WindSpeed_IsbL-0950_LatLon0.15_PT084H.grib2 2026-04-16 04:21 1.9M
20260416T00Z_MSC_GDPS_WindSpeed_IsbL-0970_LatLon0.15_PT084H.grib2 2026-04-16 04:21 1.8M
20260416T00Z_MSC_GDPS_WindSpeed_IsbL-0985_LatLon0.15_PT084H.grib2 2026-04-16 04:21 1.8M
20260416T00Z_MSC_GDPS_WindSpeed_IsbL-1000_LatLon0.15_PT084H.grib2 2026-04-16 04:21 1.8M
20260416T00Z_MSC_GDPS_WindSpeed_IsbL-1015_LatLon0.15_PT084H.grib2 2026-04-16 04:21 1.8M
20260416T00Z_MSC_GDPS_WindU_AGL-10m_LatLon0.15_PT084H.grib2 2026-04-16 04:21 1.3M
20260416T00Z_MSC_GDPS_WindU_AGL-120m_LatLon0.15_PT084H.grib2 2026-04-16 04:21 960K
20260416T00Z_MSC_GDPS_WindU_AGL-40m_LatLon0.15_PT084H.grib2 2026-04-16 04:21 958K
20260416T00Z_MSC_GDPS_WindU_AGL-80m_LatLon0.15_PT084H.grib2 2026-04-16 04:21 961K
20260416T00Z_MSC_GDPS_WindU_IsbL-0001_LatLon0.15_PT084H.grib2 2026-04-16 04:21 639K
20260416T00Z_MSC_GDPS_WindU_IsbL-0005_LatLon0.15_PT084H.grib2 2026-04-16 04:21 692K
20260416T00Z_MSC_GDPS_WindU_IsbL-0010_LatLon0.15_PT084H.grib2 2026-04-16 04:21 703K
20260416T00Z_MSC_GDPS_WindU_IsbL-0020_LatLon0.15_PT084H.grib2 2026-04-16 04:21 735K
20260416T00Z_MSC_GDPS_WindU_IsbL-0030_LatLon0.15_PT084H.grib2 2026-04-16 04:21 736K
20260416T00Z_MSC_GDPS_WindU_IsbL-0050_LatLon0.15_PT084H.grib2 2026-04-16 04:21 706K
20260416T00Z_MSC_GDPS_WindU_IsbL-0100_LatLon0.15_PT084H.grib2 2026-04-16 04:21 924K
20260416T00Z_MSC_GDPS_WindU_IsbL-0150_LatLon0.15_PT084H.grib2 2026-04-16 04:21 1.0M
20260416T00Z_MSC_GDPS_WindU_IsbL-0175_LatLon0.15_PT084H.grib2 2026-04-16 04:21 1.0M
20260416T00Z_MSC_GDPS_WindU_IsbL-0200_LatLon0.15_PT084H.grib2 2026-04-16 04:21 1.1M
20260416T00Z_MSC_GDPS_WindU_IsbL-0225_LatLon0.15_PT084H.grib2 2026-04-16 04:21 1.1M
20260416T00Z_MSC_GDPS_WindU_IsbL-0250_LatLon0.15_PT084H.grib2 2026-04-16 04:21 852K
20260416T00Z_MSC_GDPS_WindU_IsbL-0275_LatLon0.15_PT084H.grib2 2026-04-16 04:21 879K
20260416T00Z_MSC_GDPS_WindU_IsbL-0300_LatLon0.15_PT084H.grib2 2026-04-16 04:21 870K
20260416T00Z_MSC_GDPS_WindU_IsbL-0350_LatLon0.15_PT084H.grib2 2026-04-16 04:21 1.1M
20260416T00Z_MSC_GDPS_WindU_IsbL-0400_LatLon0.15_PT084H.grib2 2026-04-16 04:21 1.1M
20260416T00Z_MSC_GDPS_WindU_IsbL-0450_LatLon0.15_PT084H.grib2 2026-04-16 04:21 1.1M
20260416T00Z_MSC_GDPS_WindU_IsbL-0500_LatLon0.15_PT084H.grib2 2026-04-16 04:21 1.1M
20260416T00Z_MSC_GDPS_WindU_IsbL-0550_LatLon0.15_PT084H.grib2 2026-04-16 04:21 1.1M
20260416T00Z_MSC_GDPS_WindU_IsbL-0600_LatLon0.15_PT084H.grib2 2026-04-16 04:21 1.1M
20260416T00Z_MSC_GDPS_WindU_IsbL-0650_LatLon0.15_PT084H.grib2 2026-04-16 04:21 1.2M
20260416T00Z_MSC_GDPS_WindU_IsbL-0700_LatLon0.15_PT084H.grib2 2026-04-16 04:21 1.2M
20260416T00Z_MSC_GDPS_WindU_IsbL-0750_LatLon0.15_PT084H.grib2 2026-04-16 04:21 1.3M
20260416T00Z_MSC_GDPS_WindU_IsbL-0800_LatLon0.15_PT084H.grib2 2026-04-16 04:21 1.3M
20260416T00Z_MSC_GDPS_WindU_IsbL-0850_LatLon0.15_PT084H.grib2 2026-04-16 04:21 1.4M
20260416T00Z_MSC_GDPS_WindU_IsbL-0875_LatLon0.15_PT084H.grib2 2026-04-16 04:21 1.4M
20260416T00Z_MSC_GDPS_WindU_IsbL-0900_LatLon0.15_PT084H.grib2 2026-04-16 04:21 1.4M
20260416T00Z_MSC_GDPS_WindU_IsbL-0925_LatLon0.15_PT084H.grib2 2026-04-16 04:21 1.4M
20260416T00Z_MSC_GDPS_WindU_IsbL-0950_LatLon0.15_PT084H.grib2 2026-04-16 04:21 1.4M
20260416T00Z_MSC_GDPS_WindU_IsbL-0970_LatLon0.15_PT084H.grib2 2026-04-16 04:21 1.4M
20260416T00Z_MSC_GDPS_WindU_IsbL-0985_LatLon0.15_PT084H.grib2 2026-04-16 04:21 1.4M
20260416T00Z_MSC_GDPS_WindU_IsbL-1000_LatLon0.15_PT084H.grib2 2026-04-16 04:21 1.4M
20260416T00Z_MSC_GDPS_WindU_IsbL-1015_LatLon0.15_PT084H.grib2 2026-04-16 04:21 1.3M
20260416T00Z_MSC_GDPS_WindV_AGL-10m_LatLon0.15_PT084H.grib2 2026-04-16 04:21 1.6M
20260416T00Z_MSC_GDPS_WindV_AGL-120m_LatLon0.15_PT084H.grib2 2026-04-16 04:21 966K
20260416T00Z_MSC_GDPS_WindV_AGL-40m_LatLon0.15_PT084H.grib2 2026-04-16 04:21 1.2M
20260416T00Z_MSC_GDPS_WindV_AGL-80m_LatLon0.15_PT084H.grib2 2026-04-16 04:21 968K
20260416T00Z_MSC_GDPS_WindV_IsbL-0001_LatLon0.15_PT084H.grib2 2026-04-16 04:21 762K
20260416T00Z_MSC_GDPS_WindV_IsbL-0005_LatLon0.15_PT084H.grib2 2026-04-16 04:21 781K
20260416T00Z_MSC_GDPS_WindV_IsbL-0010_LatLon0.15_PT084H.grib2 2026-04-16 04:21 804K
20260416T00Z_MSC_GDPS_WindV_IsbL-0020_LatLon0.15_PT084H.grib2 2026-04-16 04:21 853K
20260416T00Z_MSC_GDPS_WindV_IsbL-0030_LatLon0.15_PT084H.grib2 2026-04-16 04:21 852K
20260416T00Z_MSC_GDPS_WindV_IsbL-0050_LatLon0.15_PT084H.grib2 2026-04-16 04:21 904K
20260416T00Z_MSC_GDPS_WindV_IsbL-0100_LatLon0.15_PT084H.grib2 2026-04-16 04:21 848K
20260416T00Z_MSC_GDPS_WindV_IsbL-0150_LatLon0.15_PT084H.grib2 2026-04-16 04:21 1.0M
20260416T00Z_MSC_GDPS_WindV_IsbL-0175_LatLon0.15_PT084H.grib2 2026-04-16 04:21 1.0M
20260416T00Z_MSC_GDPS_WindV_IsbL-0200_LatLon0.15_PT084H.grib2 2026-04-16 04:21 841K
20260416T00Z_MSC_GDPS_WindV_IsbL-0225_LatLon0.15_PT084H.grib2 2026-04-16 04:21 907K
20260416T00Z_MSC_GDPS_WindV_IsbL-0250_LatLon0.15_PT084H.grib2 2026-04-16 04:21 906K
20260416T00Z_MSC_GDPS_WindV_IsbL-0275_LatLon0.15_PT084H.grib2 2026-04-16 04:21 932K
20260416T00Z_MSC_GDPS_WindV_IsbL-0300_LatLon0.15_PT084H.grib2 2026-04-16 04:21 923K
20260416T00Z_MSC_GDPS_WindV_IsbL-0350_LatLon0.15_PT084H.grib2 2026-04-16 04:21 938K
20260416T00Z_MSC_GDPS_WindV_IsbL-0400_LatLon0.15_PT084H.grib2 2026-04-16 04:21 937K
20260416T00Z_MSC_GDPS_WindV_IsbL-0450_LatLon0.15_PT084H.grib2 2026-04-16 04:21 876K
20260416T00Z_MSC_GDPS_WindV_IsbL-0500_LatLon0.15_PT084H.grib2 2026-04-16 04:21 1.1M
20260416T00Z_MSC_GDPS_WindV_IsbL-0550_LatLon0.15_PT084H.grib2 2026-04-16 04:21 1.1M
20260416T00Z_MSC_GDPS_WindV_IsbL-0600_LatLon0.15_PT084H.grib2 2026-04-16 04:21 1.1M
20260416T00Z_MSC_GDPS_WindV_IsbL-0650_LatLon0.15_PT084H.grib2 2026-04-16 04:21 1.2M
20260416T00Z_MSC_GDPS_WindV_IsbL-0700_LatLon0.15_PT084H.grib2 2026-04-16 04:21 1.2M
20260416T00Z_MSC_GDPS_WindV_IsbL-0750_LatLon0.15_PT084H.grib2 2026-04-16 04:21 1.3M
20260416T00Z_MSC_GDPS_WindV_IsbL-0800_LatLon0.15_PT084H.grib2 2026-04-16 04:21 1.3M
20260416T00Z_MSC_GDPS_WindV_IsbL-0850_LatLon0.15_PT084H.grib2 2026-04-16 04:21 1.4M
20260416T00Z_MSC_GDPS_WindV_IsbL-0875_LatLon0.15_PT084H.grib2 2026-04-16 04:21 1.4M
20260416T00Z_MSC_GDPS_WindV_IsbL-0900_LatLon0.15_PT084H.grib2 2026-04-16 04:21 1.4M
20260416T00Z_MSC_GDPS_WindV_IsbL-0925_LatLon0.15_PT084H.grib2 2026-04-16 04:21 1.4M
20260416T00Z_MSC_GDPS_WindV_IsbL-0950_LatLon0.15_PT084H.grib2 2026-04-16 04:21 1.4M
20260416T00Z_MSC_GDPS_WindV_IsbL-0970_LatLon0.15_PT084H.grib2 2026-04-16 04:21 1.4M
20260416T00Z_MSC_GDPS_WindV_IsbL-0985_LatLon0.15_PT084H.grib2 2026-04-16 04:21 1.4M
20260416T00Z_MSC_GDPS_WindV_IsbL-1000_LatLon0.15_PT084H.grib2 2026-04-16 04:21 1.7M
20260416T00Z_MSC_GDPS_WindV_IsbL-1015_LatLon0.15_PT084H.grib2 2026-04-16 04:21 1.6M